EW8486 Weather Reports


Display with metric or nautical units.
time (UTC)temp
F
wind
direction
speed
MPH
gust
MPH
rain 1hr
in
rain 24hr
in
rain mn
in
humidity
%
barometer
mb
20200120054006 33 54 0.0 2.0 0.00 0.02 0.02 92 1024.3
20200120052505 33 56 0.0 3.0 0.00 0.02 0.02 92 1024.5
20200120051006 33 100 0.0 2.0 0.00 0.02 0.02 92 1024.8
20200120045505 33 187 1.0 3.0 0.00 0.01 0.01 92 1025.0
20200120044005 33 177 0.0 1.0 0.00 0.01 0.01 92 1025.2
20200120042505 33 189 0.0 3.0 0.00 0.01 0.01 92 1025.3
20200120041005 33 0.0 1.0 0.00 0.01 0.01 92 1025.7
20200120035505 33 140 0.0 3.0 0.00 0.01 0.01 92 1026.0
20200120034005 33 139 0.0 2.0 0.00 0.00 0.00 92 1026.1
20200120032505 33 135 0.0 2.0 0.00 0.00 0.00 92 1026.1
20200120031005 33 119 0.0 2.0 0.00 0.00 0.00 91 1026.2
20200120025505 33 280 1.0 5.0 0.00 0.00 0.00 91 1026.2
20200120024005 32 329 0.0 3.0 0.00 0.00 0.00 91 1026.3
20200120022505 32 316 0.0 2.0 0.00 0.00 0.00 91 1026.5
20200120021007 32 337 0.0 2.0 0.00 0.00 0.00 91 1026.5
20200120015507 32 115 0.0 2.0 0.00 0.00 0.00 91 1026.8
20200120014007 32 325 0.0 3.0 0.00 0.00 0.00 91 1026.9
20200120012507 32 44 0.0 4.0 0.00 0.00 0.00 91 1027.0
20200120011007 32 331 0.0 3.0 0.00 0.00 0.00 91 1026.9
20200120005507 32 26 1.0 4.0 0.00 0.00 0.00 91 1026.8
20200120004007 32 22 0.0 3.0 0.00 0.00 0.00 91 1027.1
20200120002507 32 67 1.0 7.0 0.00 0.00 0.00 91 1027.0
20200120001006 32 114 2.0 6.0 0.00 0.00 0.00 91 1027.3
20200119235507 32 0.0 1.0 0.00 0.00 0.00 91 1027.1
20200119234006 32 54 0.0 2.0 0.00 0.00 0.00 91 1027.4
20200119232507 32 53 0.0 4.0 0.00 0.00 0.00 91 1027.4
20200119231006 32 40 1.0 5.0 0.00 0.00 0.00 91 1027.3
20200119225506 32 353 0.0 3.0 0.00 0.00 0.00 91 1027.2
20200119224006 32 81 1.0 4.0 0.00 0.00 0.00 91 1027.4
20200119222506 32 101 0.0 3.0 0.00 0.00 0.00 91 1027.5
20200119221006 32 128 0.0 2.0 0.00 0.00 0.00 91 1027.6
20200119215506 32 84 1.0 4.0 0.00 0.00 0.00 91 1027.6
20200119214007 32 110 0.0 4.0 0.00 0.00 0.00 91 1027.7
20200119212506 32 70 0.0 2.0 0.00 0.00 0.00 91 1027.8
20200119211006 32 86 0.0 3.0 0.00 0.00 0.00 91 1028.1
20200119205506 32 324 0.0 2.0 0.00 0.00 0.00 91 1028.5
20200119204006 32 57 1.0 3.0 0.00 0.00 0.00 91 1028.5
20200119202506 32 213 1.0 4.0 0.00 0.00 0.00 91 1028.6
20200119201006 32 160 1.0 4.0 0.00 0.00 0.00 91 1028.7
20200119195506 31 53 0.0 3.0 0.00 0.00 0.00 91 1028.9
20200119194006 31 89 0.0 3.0 0.00 0.00 0.00 91 1029.1
20200119192506 31 63 1.0 3.0 0.00 0.00 0.00 91 1029.3
20200119191006 31 42 1.0 4.0 0.00 0.00 0.00 91 1029.3
20200119185506 31 62 1.0 3.0 0.00 0.00 0.00 91 1029.5
20200119184006 31 66 1.0 4.0 0.00 0.05 0.00 91 1029.6
20200119182506 31 57 1.0 6.0 0.00 0.05 0.00 91 1029.6
20200119181006 31 101 1.0 5.0 0.00 0.05 0.00 91 1029.6
20200119175506 31 268 0.0 3.0 0.00 0.05 0.00 91 1029.5
20200119174006 30 245 1.0 3.0 0.00 0.05 0.00 91 1029.6
20200119172506 30 194 0.0 2.0 0.00 0.05 0.00 91 1029.6
20200119171006 30 175 0.0 1.0 0.00 0.05 0.00 91 1029.3
20200119165506 30 215 1.0 3.0 0.00 0.05 0.00 91 1029.2
20200119164006 30 209 0.0 2.0 0.00 0.05 0.00 91 1029.2
20200119162506 30 151 0.0 3.0 0.00 0.05 0.00 91 1029.0
20200119161006 30 57 0.0 2.0 0.00 0.05 0.00 91 1029.0
20200119155506 30 351 1.0 3.0 0.00 0.05 0.00 91 1029.0
20200119154006 30 51 0.0 2.0 0.00 0.05 0.00 90 1029.0
20200119152505 29 51 0.0 2.0 0.00 0.05 0.00 90 1029.0
20200119151006 30 57 0.0 1.0 0.00 0.05 0.00 90 1029.1
20200119145506 30 57 0.0 2.0 0.00 0.05 0.00 90 1029.3
20200119144006 30 57 0.0 1.0 0.00 0.05 0.00 90 1029.2
20200119142506 30 64 0.0 3.0 0.00 0.05 0.00 90 1029.2
20200119141005 30 107 0.0 1.0 0.00 0.05 0.00 90 1029.3
20200119135505 29 107 0.0 2.0 0.00 0.05 0.00 90 1029.3
20200119134005 29 75 1.0 3.0 0.00 0.05 0.00 90 1029.3
20200119132505 29 62 0.0 4.0 0.00 0.05 0.00 90 1029.4
20200119131005 29 45 1.0 4.0 0.00 0.05 0.00 91 1029.4
20200119125505 29 331 0.0 2.0 0.00 0.05 0.00 91 1029.5
20200119124005 29 218 1.0 6.0 0.00 0.05 0.00 91 1029.5
20200119122505 29 116 0.0 2.0 0.00 0.05 0.00 90 1029.6
20200119121005 29 266 1.0 3.0 0.00 0.05 0.00 90 1029.7
20200119115505 29 173 0.0 2.0 0.00 0.05 0.00 90 1029.7
20200119114005 29 313 2.0 4.0 0.00 0.05 0.00 90 1029.8
20200119112505 29 12 0.0 3.0 0.00 0.05 0.00 90 1029.9
20200119111005 29 34 1.0 5.0 0.00 0.05 0.00 90 1030.0
20200119105505 29 323 0.0 3.0 0.00 0.05 0.00 90 1030.1
20200119104005 29 324 1.0 5.0 0.00 0.05 0.00 91 1030.1
20200119102505 28 74 2.0 6.0 0.00 0.05 0.00 90 1029.9
20200119101005 28 76 0.0 2.0 0.00 0.05 0.00 90 1029.8
20200119095505 28 76 0.0 2.0 0.00 0.05 0.00 91 1029.6
20200119094007 28 119 1.0 4.0 0.00 0.05 0.00 90 1029.6
20200119092507 28 69 1.0 5.0 0.00 0.05 0.00 91 1029.3
20200119091007 28 180 0.0 4.0 0.00 0.05 0.00 91 1029.4
20200119085507 28 63 0.0 3.0 0.00 0.05 0.00 90 1029.3
20200119084006 28 63 0.0 3.0 0.00 0.05 0.00 90 1029.6
20200119082507 28 63 0.0 2.0 0.00 0.05 0.00 90 1029.4
20200119081007 28 59 0.0 3.0 0.00 0.05 0.00 90 1029.5
20200119075506 27 30 0.0 3.0 0.00 0.05 0.05 90 1029.4
20200119074006 27 58 0.0 4.0 0.00 0.05 0.05 90 1029.3
20200119072505 27 29 0.0 2.0 0.00 0.05 0.05 90 1029.3
20200119071006 27 80 0.0 3.0 0.00 0.05 0.05 90 1029.3
20200119065506 27 95 1.0 4.0 0.00 0.05 0.05 90 1029.4
20200119064005 27 45 0.0 1.0 0.00 0.05 0.05 90 1029.2
20200119062505 27 61 1.0 4.0 0.00 0.05 0.05 90 1029.2
20200119061005 27 111 2.0 6.0 0.00 0.05 0.05 90 1029.3
20200119055505 27 117 2.0 6.0 0.00 0.05 0.05 90 1029.3